AZERSPACE 2 (IS-38)

Last updated on Mon Sep 21 2026 00:03:01 GMT+0000 (Coordinated Universal Time)

1 43632U 18074A 26263.50013472 .00000000 00000+0 00000+0 0 9997 2 43632 0.0212 141.3594 0000884 51.0534 32.1435 1.00269337 29404
UTC large
Height (km)
Speed (km/s)
/
Latitude / Longitude
Inclination (degrees)
Orbital Period (minutes)
Azimuth
Elevation
Range (km)
Doppler Factor

Next 0 passes for location: London (51.5072 / 0.1276)

No passes found over London.